Location: Newark
(34.6283°N, 36.0776°E)
Time: 01:58:58
(UTC+00:00)

Tiros 1 despin weight - Pass Details

Date: 22 September 2019
Orbit: 593 x 643 km, 48.2° (Epoch: 19 October)

Event Time Altitude Azimuth Distance (km) Brightness Sun altitude
Rises 07:50:15 0° 214° (SW) 2,904 ? 48.8°
Reaches altitude 10° 07:52:39 10° 208° (SSW) 1,992 ? 49.1°
Maximum altitude 07:57:00 43° 137° (SE) 866 ? 49.6°
Drops below altitude 10° 08:01:18 10° 65° (ENE) 1,971 ? 50.1°
Sets 08:03:39 0° 59° (ENE) 2,870 ? 50.4°
